Погода в Анне

Погода в Анне : погода сейчас, прогноз погоды и архив. Всё, что Вы хотите узнать о погоде в Анне!

Хотите узнать прогноз погоды в Анне? Тогда Вам сюда: Погода в Анне

Поиск расширенной информации на нашем сайте:

Другие новости

Новости СМИ2

Главная страница сайта

Новости сайта

03.07.2017

Напоминаем, что на нашем специализированном сайте Метеоцентр.Азия вы можете получить высокодетализированные автоматические прогнозы погоды по пунктам России, СНГ и мира в авиационном формате (включающие направление и скорость ветра, видимость, явления погоды, количество и форму облачности, нижнюю и верхнюю границу облачности).


Погода в Анне - сегодня

Время (UTC), дата Ветер
(°,м/с) 
Видим.   Явления Облачность Т
(°С)
Тd
(°С)
f(%) Тe
(°С)
Pmin
(гПа)
dP
(гПа)
Po
(мм)
O2
(г/м3)
Тmin Tmax R s Состояние
почвы
00 19.04.18 240 (ЮЗ) 10 км    10/10 600 м 
[Sc]
+7.8 +4.4 79 +8  1006.9  -2.4  741  290           
06 19.04.18 260 (З) 10 км  слаб. ливневой дождь  10/10 300 м кучево-дожд. 
[Cb calv]
+7.7 +7.1 96 +6  1001.6  -2.4  737  288           
09 19.04.18 280 (З) 10 км  слаб. ливневой дождь  10/10 300 м кучево-дожд. 
[Cb calv]
+8 +6.3 89 +6  999.8  -1.7  736  287           
18 19.04.18 350 (С) 10 км  слаб. ливневой дождь  10/10 300 м кучево-дожд. 
[Cb calv]
+7.3 +6 91 +7  998.1  0.6  735  287           
03 20.04.18 360 (С) 5-11{11}  10 км    10/10 300 м кучево-дожд. 
[Cb calv]
+6.8 +4.7 86 +5  1002.1  1.4  738  289  +6.7       
15 20.04.18 020 (С) 5-12{13}  10 км    4/4 600 м кучево-дожд. 
[Cb calv]
+13.3 +3.3 51 +13  1009.6  1.2  743  285    +13.3       
18 20.04.18 360 (С) 2{12}  10 км    3/0 верхняя 
[Ci fib]
+8.9 +1.4 59 +9  1011.7  1.8  745  290           
21 20.04.18 350 (С) 10 км    3/0 верхняя 
[Ci fib]
+4.5 +0.6 76 +4  1012.6  0.6  745  295           
00 21.04.18 270 (З) 10 км    ясно 
+3.3 +0.4 81 +4  1012.7  745  297           
06 21.04.18 240 (ЮЗ) 10 км    8/0 средняя, верхняя 
[Ac trans|Ci sp]
+9.1 +4.4 72 +9  1010.8  -1.1  744  289           
09 21.04.18 230 (ЮЗ) 5{10}  10 км    8/3 600 м средняя, верхняя 
[Cu hum|Ac trans|Ci sp]
+16 +3.4 43 +16  1007.7  -2.6  742  282           
15 21.04.18 240 (ЮЗ) 7-13{14}  10 км    3/3 600 м средняя 
[Cu hum|Ac lent]
+18.5 +4.3 39 +18  999.7  -4  736  277    +19.3       
18 21.04.18 220 (ЮЗ) 4{13}  10 км    4/0 верхняя 
[Ci sp]
+15.8 +3.7 44 +16  997.2  -2.6  734  279           
06 22.04.18 300 (СЗ) 5{13}  10 км    8/8 600 м 
[Cu hum]
+9.8 +1.7 57 +9  998  0.8  735  285           
15 22.04.18 290 (З) 5{13}  10 км  {ливн. осадки}  8/8 600 м кучево-дожд. 
[Cb calv]
+8.9 +2.8 66 +7  1001.2  1.7  737  287    +13.5  0.0     
21 22.04.18 350 (С) 10 км  {ливн. осадки}  10/10 600 м кучево-дожд. 
[Cb calv]
+4.5 +0 73 +4  1006  2.2  740  293           
06 23.04.18 330 (СЗ) 10 км    9/9 600 м кучево-дожд. 
[Cb calv]
+3.8 -3.8 58 +3  1010.4  1.4  744  296           
09 23.04.18 340 (С) 10 км    8/8 600 м кучево-дожд. 
[Cb calv]
+6.4 -9.2 32 +5  1011.5  1.1  744  294           
18 23.04.18 280 (З) 10 км    ясно 
+2.5 -7.8 47 +1  1014.1  1.5  746  299           
21 23.04.18 280 (З) 10 км    ясно 
+1.2 -5.5 61 1014.8  0.7  747  300           
00 24.04.18 270 (З) 10 км    ясно 
-0.5 -4.9 72 -2  1015.5  0.6  747  302           
06 24.04.18 290 (З) 10 км    ясно 
+7.4 -3 48 +6  1016.3  0.4  748  294           
09 24.04.18 300 (СЗ) 5{11}  10 км    3/3 600 м верхняя 
[Cu hum|Ci fib]
+11.3 -5.3 31 +10  1015.8  -0.3  748  290           
18 24.04.18 160 (Ю) 10 км    10/0 средняя 
[As trans]
+9.3 -3.8 39 +10  1013  -0.6  746  291           
21 24.04.18 200 (Ю) 10 км    10/10 600 м 
[Sc]
+9.8 -4.2 37 +10  1012.5  -0.5  745  290           
Время (UTC), дата Ветер
(°,м/с) 
Видим.   Явления Облачность Т
(°С)
Тd
(°С)
f(%) Тe
(°С)
Pmin
(гПа)
dP
(гПа)
Po
(мм)
O2
(г/м3)
Тmin Tmax R s Состояние
почвы

Для получения пояснительной информации подведите курсор к названию столбца.

ПОГОДА в Анне - архив

Всё, что Вы хотите узнать о погоде в Анне - удобно и подробно!

Выберите нужную дату (начиная с 1 января 2015* года) и нажмите кнопку "Найти".
Будут отображены архивные сводки погоды по пункту Анна, начиная с указанной даты.


Отображать данные в формате CSV (для использования в таблицах Excel)


Внимание! Наш архив погоды предназначен исключительно для личного некоммерческого использования в познавательных целях. Если Вам необходимы официальные справки о состоянии погоды (для производственных, юридических, коммерческих и т.п. целей), обращайтесь в органы Росгидромета.

*Примечание: данная дата относится к архиву по метеостанциям СССР (Россия, СНГ, Балтия).
Архив по метеостанциям Зарубежной Европы и Азии (кроме Китая) хранится 10 дней, по другим регионам земного шара (Китай, Африка, Америка, Австралия, Океания) - 1 день.

Анна - район местоположения метеостанции


Название, широта, долгота, высота метеостанции:
Анна 51.5°ш. 40.4°д. 154 м над ур. моря [Российская Федерация]

Дополнительная информация

В oтличие oт бoльшинства пoгoдных сайтoв мы публикуем пoдрoбную метеoинфoрмацию в детальнoм прoфессиoнальнoм фoрмате.

Характеристики температуры и влажнoсти вoздуха измеряются на высoте 2 м в тени вдали oт зданий и деревьев.
Скoрoсть ветра измеряется на высoте 10 м (на урoвне рoста челoвека скoрoсть ветра ниже в 1.5-2 раза). Если метеoстанция нахoдится в гoрoде или в лесу, тo скoрoсть ветра занижена на 2-4 м/с пo сравнению с oткрытым местoм. Скoрoсть ветра над акватoриями крупных рек и oзёр, а также на вершинах хoлмoв на 2-5 м/с выше, чем в oбычных услoвиях.
Атмoсфернoе давление в разных тoчках местнoсти мoжет значительнo oтличаться oт давления на метеoстанции, в зависимoсти oт услoвий рельефа (при пoдъёме на 10 м давление пoнижается примернo на 1 мм рт.ст.).